Regional Weather Roundup
Issued by NWS

Home | Current Version | Previous Version | Graphics & Text | Print | Product List | Glossary On
Versions: 1 2 3 4 5 6 7 8 9 10 11 12 13 14 15 16 17 18 19 20 21 22 23 24 25 26 27 28 29 30 31 32 33 34 35 36 37 38 39 40 41 42 43 44 45 46 47 48 49 50
000
ASUS44 KMEG 252110
RWRTN
TENNESSEE HOURLY STATE WEATHER ROUNDUP
NATIONAL WEATHER SERVICE MEMPHIS TN
400 PM CDT FRI JUL 25 2014

TNZ002-004-019-021-049-052-054-088>092-252200-
WEST TENNESSEE

CITY           SKY/WX    TMP DP  RH WIND       PRES   REMARKS
MEMPHIS INTL   MOSUNNY   86  61  42 NW6       30.00F
NWS MEMPHIS      N/A     86 N/A N/A MISG        N/A
JACKSON        MOSUNNY   84  60  44 W5        30.02S
DYERSBURG      MOSUNNY   82  57  42 NW10      30.04R
UNION CITY     SUNNY     81  61  50 N5        30.04R
PARIS          PTSUNNY   79  59  50 N3        30.06R
LEXINGTON      SUNNY     81  63  54 NE5       30.01S
SAVANNAH       MOSUNNY   85  65  51 CALM      30.01F
$$

TNZ008-025-027-028-033-062-065-066-252200-
NORTH MIDDLE TENNESSEE

CITY           SKY/WX    TMP DP  RH WIND       PRES   REMARKS
NASHVILLE      PTSUNNY   86  55  34 CALM      30.01F
DICKSON        SUNNY     82  59  44 CALM      30.03F
CLARKSVILLE    PTSUNNY   85  55  35 CALM      30.03R
LEBANON        SUNNY     84  55  36 NW7       30.01F
SMYRNA         SUNNY     92  59  33 CALM      30.02F HX  91
MURFREESBORO   SUNNY     83  59  44 CALM      30.02F
COOKEVILLE     SUNNY     82  63  51 W6        30.04F
LIVINGSTON       N/A     78  59  52 N7        30.06F
GALLATIN       SUNNY     87  58  37 CALM      30.03F
CROSSVILLE     SUNNY     77  51  40 VRB6      30.09F
$$

TNZ061-075-076-078-094-096-097-252200-
SOUTH MIDDLE TENNESSEE

CITY           SKY/WX    TMP DP  RH WIND       PRES   REMARKS
LEWISBURG      SUNNY     85  58  39 CALM      30.01F
FAYETTEVILLE   SUNNY     82  61  47 NW6       30.03F
TULLAHOMA      SUNNY     81  59  47 CALM      30.04F
WINCHESTER     SUNNY     84  57  39 CALM      30.03F
MCMINNVILLE    SUNNY     82  63  51 CALM      30.04F
COLUMBIA       PTSUNNY   84  64  51 E5        30.01F
SHELBYVILLE    SUNNY     84  61  45 CALM      30.03F
$$

TNZ017-018-042-046-047-252200-
NORTHEAST TENNESSEE

CITY           SKY/WX    TMP DP  RH WIND       PRES   REMARKS
TRI CITIES     MOSUNNY   83  59  44 VRB6      30.03F
ELIZABETHTON   CLEAR     81  63  54 NW6       30.03S
$$

TNZ012-013-036-069-073-074-252200-
CENTRAL EAST TENNESSEE

CITY           SKY/WX    TMP DP  RH WIND       PRES   REMARKS
KNOXVILLE      MOSUNNY   82  59  45 W13       30.02F
OAK RIDGE      SUNNY     85  61  44 VRB3      30.03F
GATLINBURG     MOCLDY    84  64  51 NW7       30.01F
MORRISTOWN     CLEAR     82  63  51 W8        30.04S
$$

TNZ083-085-099-252200-
SOUTHEAST TENNESSEE

CITY           SKY/WX    TMP DP  RH WIND       PRES   REMARKS
CHATTANOOGA    MOSUNNY   87  57  35 NW10      30.02S
$$

SKY/WX REPORTED AS FAIR MEANS FEW OR NO CLOUDS BELOW
12 THOUSAND FEET.




USA.gov is the U.S. government's official web portal to all federal, state and local government web resources and services.